GLOBAL-16 (49950 NORAD) Tracking and Keplerian Element Data

This shows tracking and keplerian element data for the satellite.

Feedback or suggestion? Click here.




ElementValue
Catalog49950
NameGLOBAL-16
Epoch Orbit2510
Epoch Day140.25623084
Epoch Year2022
RAAN135.6759
Inclination42.0119
Eccentricity0.0005546
Argument of Perigee104.8189
Mean Anonmoly255.3267
Mean Motion15.447814
Decay Rate0.00023158
L11 49950U 21120B 22140.25623084 .00023158 00000+0 48731-3 0 9996
L22 49950 42.0119 135.6759 0005546 104.8189 255.3267 15.44781400 25105

Live tracking and technical data element details for GLOBAL-16 (NORAD 49950). GLOBAL-16 can be tracked NOW for your location showing map with azimuth and elevation plus other details from your city location.

Track the satellite on the map from your city or location and see movement details for azimuth, elevation, latitude, longitude, range, height, and movement on the map or in text.







IsCatalogInMostPopularTable: catalog: 49950, numindb: 22
Update: records affected: 1



GetName: 49950 GLOBAL-16

Hit Count: updated at: Mon, 23 May 2022 20:52:15 GMT